カタログに戻る

STARLINK-34615

運用中通信VLEO
NORAD 66321·PAYLOAD·🇺🇸 United States

打ち上げ Nov 6, 2025 から Cape Canaveral Space Force Station

Loading…

次のパス (今後24時間)

TLE

最新Source: CelesTrak SupGP

元期: Sep 15, 2026, 03:18 UTC

1 66321C 25253C   26258.13798611 -.00057975  00000+0 -21003-2 0  2584
2 66321  43.0015 222.5390 0001297 273.4030 268.0463 15.27600184    18

AllMySatでSTARLINK-34615をリアルタイム追跡

Download on the App Store